[[{"header":{"parameterUnit":"m.s-1","parameterCategory":1,"la1":30.2991,"la2":30.254,"lo1":-89.0895,"lo2":-89.0444,"dy":0.0017,"dx":0.0017,"nx":28,"ny":28,"refTime":"2023-03-22T21:00:00:Z","depth":0,"parameterNumber":2,"parameterNumberName":"U-component_of_WINDS"},"data":[0,0,0,0,0,0,0,0,0,0,0,0,0,0,0,0,0,0,0,0,0,0,0,0,0,0,0,0,0,0,0,0,0,0,0,0,0,0,0,0,0,0,0,0,0,0,0,0,0,0,0,0,0,0,0,0,0,0,-0.7218,-0.7218,0,-0.7262,-0.7263,-0.7263,-0.7272,-0.7271,-0.7271,-0.727,-0.7318,-0.732,-0.7321,0,0,0,0,0,0,0,0,0,0,0,0,0,-0.7142,-0.7143,-0.7218,-0.7218,-0.7219,-0.7262,-0.7263,-0.7263,-0.7272,-0.7271,-0.7271,-0.727,-0.7318,-0.732,-0.7322,0,0,0,0,0,0,0,0,0,0,0,0,0,-0.7179,-0.7144,-0.7217,-0.7228,-0.7229,-0.7262,-0.7263,-0.7264,-0.7272,-0.7271,-0.7271,-0.727,-0.7317,-0.7319,-0.7322,-0.7348,0,0,-0.7329,-0.733,0,0,0,0,0,0,0,0,-0.7177,-0.7182,-0.7226,-0.7227,-0.7229,-0.7261,-0.7254,-0.7292,-0.7272,-0.7256,-0.727,-0.727,-0.73,-0.7304,-0.7313,-0.735,-0.7352,-0.7329,-0.7331,-0.7332,-0.7333,0,0,0,0,0,0,0,-0.7175,-0.718,-0.7235,-0.7226,-0.7228,-0.7231,-0.7236,-0.7261,-0.728,-0.7257,-0.7258,-0.7263,-0.73,-0.7311,-0.7314,-0.7353,-0.7329,-0.7332,-0.7333,-0.7334,-0.7414,-0.7415,0,0,0,0,0,0,-0.717,-0.7178,-0.7234,-0.7237,-0.7201,-0.7233,-0.7238,-0.7251,-0.728,-0.7284,-0.7263,-0.7263,-0.7307,-0.7312,-0.7316,-0.7349,-0.7332,-0.7334,-0.7336,-0.7413,-0.7414,-0.7415,0,0,0,0,0,0,-0.7168,-0.7175,-0.7232,-0.7208,-0.7215,-0.7235,-0.7249,-0.7252,-0.7263,-0.7285,-0.7288,-0.727,-0.7307,-0.7313,-0.734,-0.7351,-0.7335,-0.7338,-0.7413,-0.7414,-0.7415,-0.7414,0,0,0,0,0,0,-0.7166,-0.7174,-0.7184,-0.7208,-0.7216,-0.7254,-0.725,-0.7254,-0.7266,-0.7267,-0.7292,-0.7296,-0.7307,-0.7336,-0.7342,-0.7354,-0.7339,-0.7412,-0.7413,-0.7414,-0.7413,-0.7415,-0.7416,0,0,0,0,0,-0.7163,-0.7182,-0.7184,-0.7191,-0.7228,-0.7255,-0.726,-0.7272,-0.7267,-0.7277,-0.7292,-0.7295,-0.7348,-0.7339,-0.7346,-0.7358,-0.7411,-0.7413,-0.7414,-0.7413,-0.7415,-0.7416,0,0,0,0,0,0,-0.7159,-0.7185,-0.7188,-0.7215,-0.7233,-0.7256,-0.7269,-0.7273,-0.7293,-0.7293,-0.7307,-0.7312,-0.7339,-0.7351,-0.734,-0.7385,-0.738,-0.7383,-0.7376,-0.7378,-0.738,-0.7376,-0.7341,0,0,0,0,0,-0.7162,-0.718,-0.7202,-0.7224,-0.7233,-0.7249,-0.7261,-0.7269,-0.7288,-0.7296,-0.7312,-0.7331,-0.7352,-0.7366,-0.7387,-0.7415,-0.7421,-0.7427,-0.7429,-0.743,-0.7432,-0.7449,-0.7452,-0.742,-0.742,-0.742,0,0,-0.7167,-0.7183,-0.7194,-0.7224,-0.7238,-0.7258,-0.7256,-0.7277,-0.7292,-0.7299,-0.7326,-0.7338,-0.7361,-0.7389,-0.7402,-0.74,-0.7442,-0.7432,-0.7432,-0.7434,-0.7451,-0.7454,-0.7456,-0.7421,-0.7421,-0.7421,0,0,-0.7186,-0.72,-0.7219,-0.7234,-0.7256,-0.7267,-0.7272,-0.7295,-0.7303,-0.733,-0.7336,-0.7355,-0.7391,-0.7407,-0.7419,-0.7445,-0.7449,-0.7451,-0.7459,-0.7475,-0.7478,-0.748,-0.749,-0.7493,-0.7453,-0.7453,-0.7453,0,-0.7189,-0.7218,-0.7229,-0.725,-0.7263,-0.727,-0.7291,-0.7305,-0.7332,-0.7342,-0.7339,-0.7384,-0.74,-0.7432,-0.7438,-0.7448,-0.7454,-0.7448,-0.7477,-0.7479,-0.7481,-0.7491,-0.7494,-0.7454,-0.7453,-0.7453,-0.7453,0,-0.7222,-0.7242,-0.7256,-0.7282,-0.7296,-0.7317,-0.7332,-0.7345,-0.7352,-0.7363,-0.7391,-0.741,-0.7434,-0.7443,-0.7449,-0.7476,-0.7474,-0.7474,-0.7468,-0.7484,-0.7493,-0.7497,-0.7454,-0.7454,-0.7454,-0.7454,0,0,-0.724,-0.7272,-0.7277,-0.7289,-0.7313,-0.733,-0.7351,-0.7374,-0.7386,-0.7405,-0.7424,-0.7454,-0.7454,-0.7468,-0.7477,-0.7491,-0.751,-0.7489,-0.749,-0.7492,-0.7542,-0.7542,-0.7546,-0.7513,-0.7513,-0.7514,-0.754,0,-0.7263,-0.73,-0.731,-0.7342,-0.7361,-0.7368,-0.7387,-0.7404,-0.7416,-0.7435,-0.7448,-0.7469,-0.7467,-0.7476,-0.749,-0.7505,-0.752,-0.7503,-0.7531,-0.7532,-0.7525,-0.755,-0.7551,-0.7574,-0.7543,-0.7544,-0.7544,0,-0.7294,-0.7313,-0.7346,-0.7368,-0.7377,-0.7393,-0.7416,-0.7433,-0.7454,-0.7461,-0.7477,-0.7484,-0.7508,-0.7501,-0.7533,-0.7521,-0.7534,-0.7543,-0.7544,-0.7547,-0.7539,-0.7555,-0.7582,-0.7586,-0.755,-0.7549,-0.7549,0,-0.7304,-0.7338,-0.7362,-0.7372,-0.7399,-0.7411,-0.7422,-0.7442,-0.7456,-0.7476,-0.7485,-0.7508,-0.752,-0.7538,-0.7551,-0.7545,-0.7583,-0.7577,-0.7591,-0.759,-0.7599,-0.7598,-0.7628,-0.7606,-0.7606,-0.7606,-0.7605,0,-0.7328,-0.7349,-0.7368,-0.7383,-0.7406,-0.7418,-0.7441,-0.7453,-0.7471,-0.7489,-0.7497,-0.7514,-0.753,-0.755,-0.756,-0.7586,-0.7592,-0.7599,-0.7602,-0.7599,-0.7598,-0.7607,-0.7606,-0.7607,-0.7606,-0.7606,-0.7606,0,-0.7344,-0.7358,-0.7385,-0.7408,-0.7414,-0.743,-0.745,-0.7465,-0.7477,-0.75,-0.7506,-0.7525,-0.7548,-0.7563,-0.7593,-0.76,-0.7629,-0.7631,-0.7622,-0.7623,-0.7636,-0.7634,-0.7673,-0.768,-0.7652,-0.7652,-0.7653,0,-0.7359,-0.7375,-0.7399,-0.7411,-0.7423,-0.7443,-0.7457,-0.747,-0.7484,-0.7508,-0.7521,-0.7544,-0.7564,-0.7601,-0.7618,-0.7641,-0.7644,-0.7656,-0.7648,-0.7644,-0.7645,-0.7644,-0.7646,-0.7658,-0.7658,-0.7658,-0.7658,0,-0.7384,-0.739,-0.7409,-0.743,-0.7446,-0.7464,-0.7482,-0.7492,-0.7508,-0.7524,-0.7547,-0.7562,-0.7593,-0.7616,-0.7641,-0.7654,-0.7659,-0.7661,-0.7665,-0.7663,-0.7657,-0.7661,-0.7626,-0.766,-0.766,-0.766,-0.766,-0.766,-0.7401,-0.7415,-0.7434,-0.7455,-0.747,-0.7486,-0.7502,-0.7515,-0.7535,-0.756,-0.7567,-0.7591,-0.7612,-0.7645,-0.7659,-0.7679,-0.7678,-0.7684,-0.7686,-0.7687,-0.7688,-0.7653,-0.7684,-0.7684,-0.7684,-0.7684,-0.7684,0,-0.7427,-0.7439,-0.7458,-0.7483,-0.75,-0.7502,-0.7522,-0.7536,-0.7557,-0.7576,-0.7595,-0.7622,-0.7645,-0.7663,-0.7687,-0.77,-0.7703,-0.7706,-0.7706,-0.7709,-0.7687,-0.7681,-0.7703,-0.7703,-0.7703,-0.7703,-0.7703,-0.7703,-0.7442,-0.7467,-0.7475,-0.7507,-0.752,-0.7543,-0.7555,-0.757,-0.7585,-0.7615,-0.7634,-0.7645,-0.7664,-0.7689,-0.7711,-0.7716,-0.7724,-0.7727,-0.7732,-0.7712,-0.771,-0.7708,-0.7702,-0.7728,-0.7728,-0.7752,-0.7752,-0.7752]},{"header":{"parameterUnit":"m.s-1","parameterCategory":1,"la1":30.2991,"la2":30.254,"lo1":-89.0895,"lo2":-89.0444,"dy":0.0017,"dx":0.0017,"nx":28,"ny":28,"refTime":"2023-03-22T21:00:00:Z","depth":0,"parameterNumber":3,"parameterNumberName":"V-component_of_WINDS"},"data":[0,0,0,0,0,0,0,0,0,0,0,0,0,0,0,0,0,0,0,0,0,0,0,0,0,0,0,0,0,0,0,0,0,0,0,0,0,0,0,0,0,0,0,0,0,0,0,0,0,0,0,0,0,0,0,0,0,0,2.5291,2.5291,0,2.5212,2.5211,2.521,2.5144,2.5143,2.5143,2.5142,2.5057,2.5055,2.5053,0,0,0,0,0,0,0,0,0,0,0,0,0,2.5385,2.5384,2.5291,2.529,2.5289,2.5212,2.5211,2.5209,2.5144,2.5143,2.5143,2.5142,2.5057,2.5055,2.5053,0,0,0,0,0,0,0,0,0,0,0,0,0,2.5329,2.5383,2.5292,2.5248,2.5243,2.5212,2.5211,2.5209,2.5144,2.5143,2.5142,2.5141,2.5058,2.5055,2.5053,2.5058,0,0,2.5045,2.5044,0,0,0,0,0,0,0,0,2.5332,2.5325,2.5255,2.5251,2.5245,2.5187,2.5212,2.5158,2.5145,2.5182,2.5142,2.5141,2.5101,2.5094,2.5082,2.5054,2.505,2.5045,2.5044,2.5043,2.5042,0,0,0,0,0,0,0,2.5336,2.5329,2.526,2.5254,2.5248,2.5231,2.5222,2.5202,2.5148,2.5178,2.5173,2.5165,2.5098,2.5084,2.5079,2.5049,2.5045,2.5043,2.5042,2.5041,2.5024,2.5025,0,0,0,0,0,0,2.5347,2.5332,2.5262,2.5257,2.5287,2.523,2.522,2.5207,2.5148,2.5138,2.5166,2.5162,2.5089,2.5082,2.5076,2.5079,2.5043,2.504,2.5039,2.5023,2.5024,2.5025,0,0,0,0,0,0,2.535,2.5342,2.5265,2.5293,2.5282,2.523,2.5215,2.5205,2.5192,2.5138,2.5128,2.5162,2.5088,2.5079,2.5064,2.5075,2.5039,2.5037,2.5022,2.5023,2.5025,2.5086,0,0,0,0,0,0,2.5353,2.5343,2.5345,2.5294,2.5281,2.5255,2.5216,2.5205,2.5188,2.5183,2.5132,2.5123,2.5086,2.5068,2.5061,2.5071,2.5035,2.502,2.5022,2.5024,2.5082,2.5089,2.5095,0,0,0,0,0,2.5356,2.5364,2.5345,2.5337,2.5283,2.5256,2.5249,2.5208,2.519,2.5191,2.5157,2.5124,2.5075,2.5067,2.5059,2.5068,2.5019,2.5022,2.5024,2.5079,2.5088,2.5095,0,0,0,0,0,0,2.5415,2.5356,2.5335,2.5326,2.5297,2.5245,2.5245,2.5217,2.5191,2.5187,2.5136,2.5125,2.5115,2.509,2.5082,2.5071,2.5043,2.5044,2.5088,2.5095,2.5102,2.5108,2.5033,0,0,0,0,0,2.5427,2.5412,2.5361,2.5358,2.5345,2.5298,2.5285,2.5256,2.5223,2.521,2.5174,2.5143,2.512,2.5106,2.5082,2.5079,2.5067,2.5081,2.5088,2.5093,2.5094,2.5092,2.5098,2.5033,2.5033,2.5033,0,0,2.5452,2.5418,2.5411,2.5369,2.5343,2.5328,2.5288,2.5273,2.5261,2.5207,2.5191,2.5164,2.5125,2.5116,2.511,2.5095,2.511,2.5096,2.5101,2.5099,2.5095,2.5101,2.5107,2.5034,2.5034,2.5034,0,0,2.5489,2.5462,2.5457,2.5433,2.5395,2.5364,2.5363,2.5316,2.5297,2.528,2.524,2.5225,2.5187,2.5162,2.5144,2.5175,2.5144,2.5168,2.5201,2.5199,2.5204,2.5208,2.522,2.5225,2.517,2.517,2.517,0,2.5524,2.55,2.5458,2.5447,2.543,2.5383,2.5378,2.5356,2.5311,2.5301,2.5284,2.5238,2.5208,2.5193,2.5201,2.5188,2.5186,2.5173,2.5207,2.5211,2.5214,2.5225,2.523,2.5173,2.5173,2.5172,2.5172,0,2.5546,2.553,2.5531,2.5492,2.5475,2.5467,2.5424,2.5412,2.5385,2.5356,2.5341,2.5304,2.5273,2.5267,2.524,2.5249,2.5241,2.5217,2.5187,2.5224,2.5234,2.5238,2.5178,2.5176,2.5176,2.5175,0,0,2.5616,2.5556,2.5557,2.5539,2.5495,2.5481,2.5472,2.5443,2.5434,2.5406,2.5396,2.5367,2.5345,2.5325,2.5295,2.5293,2.5322,2.5269,2.5267,2.5281,2.5331,2.535,2.5356,2.5302,2.5302,2.5303,2.5335,0,2.5647,2.5627,2.5591,2.5583,2.5568,2.5525,2.5516,2.5488,2.5461,2.5445,2.5414,2.5395,2.5367,2.5355,2.5352,2.5319,2.5331,2.5316,2.5293,2.5292,2.5304,2.536,2.5379,2.5411,2.5338,2.5338,2.5339,0,2.5679,2.5656,2.5647,2.5606,2.5598,2.5592,2.5563,2.5548,2.5516,2.5496,2.5476,2.5444,2.5431,2.5405,2.5388,2.5378,2.5367,2.535,2.535,2.5346,2.5318,2.5358,2.542,2.5425,2.5344,2.5344,2.5343,0,2.5733,2.5698,2.569,2.5676,2.5627,2.5623,2.5603,2.5569,2.5555,2.5531,2.5521,2.5495,2.548,2.5461,2.5422,2.5407,2.541,2.538,2.5393,2.5395,2.5396,2.5396,2.5457,2.5388,2.5388,2.5388,2.5388,0,2.577,2.5767,2.5713,2.5708,2.5703,2.5661,2.5658,2.5633,2.5604,2.5593,2.5553,2.5543,2.5493,2.5478,2.5448,2.5439,2.5432,2.5416,2.5408,2.542,2.5422,2.5412,2.5409,2.5389,2.5389,2.5388,2.5388,0,2.5829,2.5793,2.578,2.5736,2.5725,2.5724,2.5686,2.5679,2.5651,2.5637,2.5632,2.5587,2.5567,2.5528,2.5496,2.5476,2.5474,2.546,2.5486,2.5481,2.5497,2.5496,2.5553,2.5559,2.5486,2.5487,2.5487,0,2.5856,2.5853,2.5809,2.58,2.5781,2.5766,2.5752,2.5711,2.5698,2.5662,2.566,2.5638,2.5617,2.5588,2.5552,2.5528,2.5513,2.5535,2.5509,2.5522,2.5515,2.5516,2.5516,2.5541,2.5542,2.5543,2.5543,0,2.5907,2.589,2.5872,2.5849,2.5834,2.5813,2.579,2.5785,2.5738,2.5726,2.5706,2.569,2.566,2.5638,2.561,2.5588,2.5558,2.5552,2.5554,2.5566,2.5582,2.5574,2.5502,2.5551,2.555,2.5549,2.5549,2.5549,2.5951,2.5947,2.5917,2.5899,2.5877,2.5858,2.585,2.5822,2.5805,2.5778,2.5754,2.5737,2.5706,2.5665,2.5646,2.5632,2.5617,2.5619,2.562,2.5622,2.5627,2.5584,2.5626,2.5626,2.5625,2.5625,2.5625,0,2.6001,2.598,2.5964,2.5935,2.5921,2.5896,2.587,2.586,2.5845,2.582,2.5802,2.578,2.5759,2.5724,2.57,2.5696,2.5682,2.5691,2.5691,2.5687,2.5641,2.5642,2.5703,2.5703,2.5703,2.5703,2.5703,2.5703,2.6026,2.6019,2.5998,2.5981,2.5959,2.5943,2.593,2.5912,2.5892,2.587,2.5853,2.583,2.5801,2.5776,2.5756,2.5746,2.574,2.5754,2.5739,2.5697,2.569,2.5683,2.5684,2.5752,2.5752,2.5786,2.5787,2.5787]}]]